Temp
-2 -2 -0 1 2 1 2 2 3 4 4 3 4 5 6 6 6 7 7 9 9 9 9 9 10 9 9 9 9 10 10 9 9 9 9 8 8 8 8 8 7 7 7 7
-3 -1 -0 0 1 0 1 1 2 2 3 2 3 4 5 6 6 7 8 8 9 9 9 9 10 10 10 10 10 10 10 10 9 9 8 8 8 8 8 8 7 7 7 7
-4 -2 -1 -1 0 -0 0 1 1 1 2 2 2 3 5 6 6 7 7 8 8 9 9 9 9 10 10 10 10 10 10 9 9 9 9 9 9 8 7 7 7 7 7 7
-6 -4 -2 -1 -0 -0 -1 0 -0 -0 0 1 1 -1 4 5 6 7 7 7 9 9 10 9 9 9 10 10 10 10 9 9 9 9 9 8 8 7 7 7 7 7 7 7
-5 -5 -4 -4 -1 -1 -1 -0 0 1 0 -0 0 -0 2 4 6 7 8 8 9 9 9 9 9 9 10 9 9 9 9 9 9 9 8 8 7 8 8 7 7 7 7 6
-5 -4 -4 -1 -2 -1 -1 -2 -1 -1 -1 -3 0 0 2 4 6 8 8 8 8 9 9 9 9 9 9 9 9 9 9 9 9 9 8 8 7 7 7 7 6 6 6 6
-7 -7 -4 -4 -4 -3 -3 -2 -4 -3 -4 -3 -0 -1 2 6 7 7 8 8 8 8 9 9 9 9 9 10 9 9 9 9 9 9 8 8 7 7 7 7 7 6 6 6
-6 -6 -6 -5 -4 -4 -4 -2 -3 -5 -7 -4 -1 -1 2 5 6 7 7 8 8 8 8 9 9 9 9 9 9 9 8 8 8 8 8 7 7 7 7 7 6 6 6 6
-7 -6 -4 -5 -4 -3 -4 -3 -1 -1 -4 -4 -0 2 3 4 6 7 7 8 8 8 8 9 9 9 9 9 9 8 8 8 8 8 8 7 7 7 7 6 6 6 6 6
-6 -6 -5 -5 -5 -4 -2 -1 -2 -0 -5 -5 -2 -0 3 7 7 6 6 6 7 7 7 8 8 8 8 9 8 8 8 7 7 7 7 6 6 6 6 6 6 6 5 5
-7 -6 -6 -5 -5 -4 -4 -3 -2 -0 -0 -2 -6 1 5 6 7 7 7 6 6 7 7 7 7 7 8 8 8 8 7 7 7 7 6 6 6 6 6 6 6 5 5 5
-7 -6 -6 -5 -4 -4 -4 -3 -2 -1 -2 -0 -1 2 4 5 6 5 6 6 6 6 6 7 7 7 7 8 7 7 7 6 6 6 6 6 6 6 6 6 6 5 5 5
-8 -7 -6 -6 -6 -5 -4 -3 -2 -1 0 -1 -2 2 5 5 5 6 5 6 5 6 6 6 6 6 7 7 7 7 7 6 6 6 6 6 6 5 5 5 5 5 5 5
-8 -7 -6 -5 -4 -5 -5 -4 -3 -1 -1 0 -0 2 3 4 5 6 6 5 5 5 5 5 6 6 6 6 7 7 7 6 6 6 6 6 6 5 5 5 5 4 4 4
-10 -9 -8 -7 -5 -4 -4 -4 -3 -3 -1 -1 0 1 3 4 4 4 4 4 4 5 5 5 5 6 6 6 6 6 6 6 6 6 5 5 5 5 5 5 4 4 4 4
-10 -10 -10 -9 -7 -7 -6 -5 -4 -3 -2 -1 -1 0 2 3 3 3 4 3 3 3 4 4 5 5 5 5 5 5 5 5 5 5 5 5 5 5 4 4 4 4 4 4
-11 -11 -11 -11 -10 -8 -8 -6 -5 -4 -3 -2 -2 -1 -0 1 0 2 3 3 2 3 3 3 3 3 4 4 4 5 5 5 5 4 4 5 5 5 4 4 4 4 4 3
-12 -11 -11 -11 -10 -10 -9 -7 -6 -5 -4 -4 -3 -2 -2 -1 0 1 2 2 2 2 2 2 2 2 3 3 3 4 4 4 5 5 4 5 5 5 4 4 4 4 4 3
-12 -11 -11 -11 -11 -10 -9 -8 -8 -6 -5 -5 -4 -4 -3 -1 -0 -0 0 0 0 0 0 0 0 1 1 2 3 3 3 4 4 4 4 4 5 5 5 5 4 4 3 3
-12 -12 -11 -10 -11 -11 -8 -8 -8 -9 -7 -6 -5 -4 -4 -3 -2 -0 -1 -1 -1 -0 -0 0 0 0 0 1 2 2 2 3 3 3 3 3 4 4 4 4 4 3 3 2
-13 -13 -12 -11 -10 -9 -8 -8 -8 -8 -8 -7 -6 -5 -5 -4 -4 -3 -2 -1 -1 -1 -1 -1 -0 0 1 1 1 2 2 2 2 3 3 3 3 3 3 3 3 3 2 2
-11 -13 -12 -12 -12 -13 -8 -8 -8 -8 -8 -8 -7 -6 -6 -6 -6 -5 -4 -3 -3 -3 -2 -1 -1 -0 0 1 1 1 2 2 2 2 2 3 3 3 3 3 2 2 2 2
-12 -11 -11 -11 -10 -9 -9 -9 -9 -9 -8 -8 -7 -7 -7 -7 -7 -6 -7 -5 -5 -4 -4 -3 -3 -2 -1 -1 -0 0 1 2 2 2 2 2 3 2 2 2 2 2 2 2
-13 -12 -12 -12 -11 -11 -11 -10 -10 -9 -8 -8 -7 -7 -8 -8 -9 -8 -7 -6 -6 -5 -5 -4 -4 -3 -2 -2 -1 -1 -0 1 2 2 2 2 2 2 3 3 2 2 3 3
-13 -13 -13 -13 -12 -11 -11 -11 -11 -10 -10 -10 -9 -8 -8 -9 -10 -10 -9 -8 -7 -7 -6 -5 -5 -4 -3 -3 -2 -1 -1 -0 0 1 2 2 2 2 2 3 3 2 3 2
-12 -12 -13 -13 -12 -12 -11 -11 -11 -11 -11 -11 -10 -9 -9 -9 -9 -10 -10 -9 -8 -7 -6 -6 -5 -5 -5 -4 -3 -2 -1 -1 -0 0 1 1 2 2 2 2 3 3 3 2
Height
3039 3041 3028 3036 3047 3053 3058 3059 3059 3060 3062 3060 3059 3057 3059 3065 3064 3066 3069 3073 3076 3080 3086 3088 3090 3093 3096 3099 3102 3105 3108 3111 3113 3116 3119 3122 3124 3126 3127 3127 3128 3128 3128 3128
3030 3013 3030 3039 3044 3047 3050 3051 3052 3056 3055 3055 3054 3050 3053 3055 3056 3057 3062 3064 3067 3072 3076 3080 3083 3086 3089 3093 3097 3099 3103 3106 3109 3112 3115 3117 3119 3122 3124 3125 3126 3127 3127 3127
3011 3011 3025 3030 3033 3037 3038 3040 3046 3053 3052 3051 3049 3042 3043 3047 3048 3050 3052 3056 3059 3063 3068 3072 3074 3078 3082 3086 3089 3093 3097 3101 3104 3107 3109 3112 3116 3119 3121 3123 3124 3125 3125 3126
3007 3009 3014 3018 3020 3027 3028 3035 3042 3047 3051 3049 3047 3036 3032 3036 3039 3040 3044 3047 3051 3055 3060 3064 3066 3069 3074 3079 3083 3086 3090 3093 3097 3101 3104 3108 3113 3115 3117 3119 3121 3122 3123 3124
2984 2994 3003 3008 3006 3020 3022 3033 3039 3043 3045 3045 3042 3042 3016 3026 3028 3032 3037 3041 3044 3048 3051 3054 3058 3062 3067 3071 3076 3081 3084 3087 3091 3094 3098 3103 3107 3110 3113 3116 3118 3120 3121 3123
2987 2991 2997 2997 3006 3016 3023 3030 3035 3039 3042 3041 3028 3035 3005 3013 3015 3025 3031 3034 3036 3038 3040 3044 3048 3052 3056 3062 3067 3073 3077 3081 3086 3089 3093 3097 3101 3105 3109 3112 3115 3117 3119 3121
2979 2983 2986 2993 3000 3010 3014 3021 3031 3038 3038 3021 3021 3024 3000 3005 3009 3013 3020 3024 3027 3029 3033 3036 3040 3043 3048 3053 3059 3065 3070 3075 3079 3083 3087 3092 3096 3100 3104 3108 3111 3114 3116 3119
2970 2975 2973 2978 2984 2990 2999 3009 3009 3022 3024 3015 3017 3003 2991 3000 3007 3008 3012 3018 3019 3022 3025 3029 3032 3037 3042 3046 3052 3058 3064 3069 3074 3079 3083 3087 3091 3096 3101 3104 3108 3112 3114 3117
2961 2963 2965 2971 2979 2987 2994 2998 3002 3007 3010 3011 3002 2991 2990 2997 2999 3004 3007 3009 3013 3015 3017 3022 3025 3030 3035 3040 3044 3050 3056 3062 3067 3073 3077 3082 3086 3091 3096 3101 3105 3109 3112 3114
2954 2957 2961 2967 2976 2982 2982 2988 3000 3002 3009 3012 2992 2988 2983 2988 2990 2994 2994 2997 3004 3007 3010 3014 3019 3024 3028 3033 3037 3042 3048 3056 3061 3066 3071 3076 3082 3087 3092 3097 3101 3105 3108 3110
2950 2949 2954 2960 2961 2958 2970 2978 2984 2989 2989 2990 2995 2979 2982 2985 2986 2987 2988 2989 2994 2999 3004 3009 3012 3017 3021 3026 3030 3034 3041 3048 3054 3060 3065 3071 3077 3082 3087 3092 3097 3100 3104 3106
2939 2941 2944 2949 2954 2960 2965 2968 2975 2980 2983 2980 2980 2979 2978 2979 2980 2982 2984 2987 2991 2996 3000 3005 3009 3013 3017 3021 3025 3029 3035 3042 3047 3054 3059 3065 3070 3075 3082 3087 3092 3095 3099 3102
2934 2936 2938 2947 2952 2953 2955 2958 2961 2967 2972 2972 2976 2975 2977 2976 2978 2981 2984 2986 2990 2994 2998 3001 3004 3008 3013 3017 3021 3026 3031 3036 3041 3047 3053 3058 3063 3070 3076 3081 3086 3090 3094 3098
2926 2926 2924 2928 2932 2944 2947 2952 2957 2962 2965 2962 2964 2975 2976 2978 2979 2980 2983 2986 2989 2992 2996 2998 3001 3005 3009 3013 3017 3022 3026 3030 3035 3041 3046 3052 3059 3065 3070 3075 3080 3084 3089 3094
2924 2920 2921 2927 2932 2939 2942 2947 2952 2957 2956 2964 2962 2970 2976 2978 2979 2981 2982 2984 2987 2989 2992 2996 2999 3002 3006 3009 3013 3017 3021 3026 3031 3035 3040 3046 3052 3058 3063 3068 3073 3078 3084 3089
2923 2923 2922 2924 2929 2931 2935 2940 2947 2951 2953 2958 2961 2967 2974 2976 2978 2981 2982 2983 2985 2987 2991 2994 2997 3000 3002 3005 3009 3013 3016 3021 3025 3031 3036 3041 3046 3051 3056 3061 3067 3073 3078 3084
2924 2922 2923 2927 2927 2925 2931 2935 2939 2942 2947 2951 2954 2963 2970 2973 2977 2980 2981 2983 2984 2987 2989 2992 2995 2997 3000 3003 3006 3009 3013 3017 3022 3026 3030 3035 3040 3045 3050 3056 3061 3067 3073 3079
2922 2921 2921 2926 2927 2928 2928 2929 2933 2935 2938 2945 2950 2957 2966 2974 2976 2978 2979 2980 2982 2985 2988 2992 2995 2997 3000 3002 3004 3007 3010 3014 3018 3022 3026 3030 3034 3039 3045 3051 3057 3062 3067 3074
2919 2922 2920 2925 2929 2928 2926 2927 2931 2932 2935 2941 2944 2951 2959 2968 2970 2972 2975 2977 2980 2983 2986 2989 2992 2995 2998 3001 3003 3006 3009 3011 3014 3018 3021 3025 3029 3034 3039 3045 3051 3058 3063 3069
2918 2919 2920 2921 2924 2928 2924 2925 2927 2929 2932 2934 2937 2943 2950 2959 2959 2967 2971 2972 2974 2978 2982 2985 2989 2993 2996 2999 3003 3006 3009 3011 3012 3015 3017 3021 3025 3029 3035 3042 3048 3053 3059 3065
2914 2916 2917 2917 2918 2918 2921 2923 2926 2933 2936 2928 2929 2935 2943 2947 2956 2964 2964 2967 2970 2972 2976 2980 2984 2988 2992 2996 3000 3004 3007 3009 3010 3012 3015 3018 3022 3026 3032 3037 3043 3048 3054 3059
2908 2912 2914 2916 2917 2917 2915 2919 2924 2927 2928 2927 2928 2929 2932 2936 2946 2953 2956 2959 2963 2966 2968 2972 2976 2982 2986 2990 2995 3001 3005 3004 3007 3010 3013 3016 3019 3022 3027 3033 3038 3043 3047 3052
2910 2909 2907 2909 2907 2908 2911 2915 2917 2919 2924 2927 2928 2928 2927 2930 2936 2940 2946 2953 2958 2960 2963 2966 2970 2975 2978 2983 2988 2994 2996 3000 3002 3006 3010 3014 3016 3019 3023 3027 3032 3036 3041 3046
2900 2903 2904 2906 2904 2904 2907 2909 2911 2914 2917 2921 2923 2924 2926 2928 2930 2934 2939 2943 2950 2955 2958 2961 2963 2967 2972 2977 2982 2986 2988 2993 2997 3001 3004 3007 3011 3015 3018 3021 3025 3030 3036 3041
2899 2900 2900 2900 2896 2898 2899 2901 2904 2907 2909 2912 2915 2915 2919 2922 2924 2926 2930 2934 2938 2944 2950 2953 2957 2962 2965 2970 2974 2978 2981 2986 2990 2994 2997 3000 3005 3009 3013 3016 3020 3025 3030 3035
2886 2889 2892 2890 2888 2886 2888 2891 2894 2895 2897 2901 2904 2907 2910 2913 2917 2920 2925 2928 2931 2935 2941 2946 2949 2954 2960 2963 2966 2968 2973 2978 2982 2986 2990 2993 2997 3001 3005 3009 3014 3018 3023 3026
Wind_Speed
42 44 57 55 48 42 35 26 32 33 30 31 30 30 31 30 36 36 31 36 37 33 28 29 30 31 31 31 28 26 25 23 21 19 17 14 13 11 9 8 5 3 1 3
46 61 52 46 43 43 42 41 37 28 26 24 26 33 32 33 34 37 36 36 35 35 34 32 31 29 31 31 30 29 27 26 24 21 19 20 18 14 12 10 8 6 2 1
55 40 51 49 47 45 47 47 42 31 18 19 24 36 36 35 34 36 38 36 37 36 35 36 37 34 33 31 30 30 30 28 26 24 24 24 18 14 13 12 11 7 4 2
43 56 29 43 54 50 47 43 42 33 26 15 15 11 32 30 35 38 36 36 34 36 36 36 38 38 36 34 33 29 30 30 29 27 26 25 19 18 19 15 12 9 6 4
46 36 52 37 45 48 44 35 35 30 34 29 31 13 34 31 39 36 33 32 31 30 33 36 39 39 37 36 34 33 31 30 29 28 29 27 24 23 19 15 14 11 9 7
48 29 36 54 54 33 40 28 22 20 22 9 37 25 34 41 43 33 26 23 28 28 34 36 38 42 43 40 39 36 32 33 32 31 30 29 27 25 19 17 16 14 11 9
40 43 34 34 36 37 33 32 4 3 5 10 9 20 42 10 19 25 31 30 26 30 35 34 37 40 42 42 41 38 37 33 31 32 31 30 29 26 22 20 18 16 13 11
34 19 47 36 42 41 42 39 15 8 5 3 8 16 20 22 32 35 31 20 32 30 30 34 35 36 35 38 41 38 36 35 32 29 30 32 30 27 23 20 18 16 14 11
32 31 12 44 39 39 39 45 40 5 4 2 11 29 39 38 41 33 29 25 23 28 31 33 33 33 34 33 30 36 37 34 32 29 30 32 31 28 23 20 17 16 14 14
13 20 35 30 35 36 38 45 26 16 5 4 7 13 22 6 5 7 24 37 29 29 31 29 31 32 31 28 31 32 37 33 30 30 31 33 31 28 24 21 17 17 18 16
43 17 12 30 38 47 41 43 34 32 11 8 2 9 17 15 24 26 19 20 24 27 24 18 21 26 28 29 29 31 36 34 33 32 32 33 33 31 27 22 20 19 20 18
49 17 21 35 37 40 41 41 45 29 16 14 2 5 3 3 7 14 12 17 20 25 22 20 21 21 20 21 28 30 35 36 34 34 33 33 35 34 29 24 22 22 22 20
40 32 23 15 33 26 41 46 56 44 38 28 12 6 16 9 8 3 6 18 17 15 17 19 20 22 21 20 23 26 28 34 36 36 35 36 36 35 32 28 25 23 23 22
21 39 14 23 35 34 32 44 46 47 27 35 39 20 9 8 8 9 14 13 15 18 19 20 20 21 24 25 24 24 27 30 34 36 36 36 35 34 32 29 27 25 25 24
6 6 29 28 12 31 39 40 43 49 49 28 34 27 20 10 6 8 9 17 17 20 22 20 18 18 21 23 27 27 27 29 31 34 36 36 35 34 33 31 29 28 27 26
14 4 13 5 29 21 21 27 39 49 50 47 28 25 26 22 12 8 9 13 19 19 20 20 19 19 19 21 23 26 26 28 31 32 31 33 34 35 35 33 32 30 30 28
7 4 8 3 10 14 18 25 26 43 52 48 44 38 26 31 13 12 16 23 26 26 24 22 20 19 17 16 17 20 22 23 24 27 30 31 31 31 33 33 33 33 30 29
8 4 3 4 10 1 6 16 27 32 41 43 43 39 33 24 23 16 23 29 29 28 25 20 16 13 14 15 14 13 15 18 20 22 24 26 28 30 31 31 32 33 32 29
11 6 7 6 4 11 8 3 13 25 35 37 31 35 35 32 26 27 28 27 26 24 20 15 12 13 10 8 11 12 12 14 16 18 21 24 25 27 29 31 32 32 31 30
18 15 4 17 6 4 3 2 11 8 18 16 28 35 31 36 43 36 28 28 26 23 20 19 18 15 12 11 10 10 10 9 12 15 17 20 22 24 27 29 31 31 31 30
19 19 17 11 4 7 12 15 20 9 2 1 10 18 27 30 29 37 46 44 43 41 38 35 30 28 24 19 15 14 12 12 12 11 16 19 20 22 26 28 29 30 31 32
17 12 14 12 7 7 10 10 14 13 18 9 4 10 23 26 25 30 35 37 38 40 40 40 39 36 33 29 27 18 18 19 16 15 13 17 21 24 26 28 30 31 31 32
19 24 18 15 14 11 8 7 10 9 10 16 19 15 26 27 26 30 25 24 22 22 22 23 23 23 26 25 22 19 24 26 24 20 18 16 19 23 26 28 29 30 31 32
22 19 24 21 26 25 21 21 22 21 19 18 22 27 27 13 14 23 25 22 19 14 15 16 13 18 21 22 24 22 23 24 25 28 26 23 21 23 26 28 30 31 30 31
17 13 19 21 23 23 24 25 25 24 24 27 28 30 29 26 28 26 19 14 15 13 12 13 13 15 17 19 21 25 25 24 27 30 31 30 28 26 28 27 29 29 29 30
32 29 23 23 21 24 23 22 23 27 29 31 30 32 32 31 30 29 32 29 25 18 20 16 13 12 11 16 20 20 24 26 29 33 33 32 32 33 31 31 30 30 31 32
Wind_Direction
227 226 227 229 232 236 238 246 253 256 256 253 255 258 250 247 245 242 236 235 236 236 233 234 233 229 227 229 230 231 231 234 241 241 235 230 229 229 230 228 231 241 274 3
223 231 233 235 235 234 237 241 247 254 256 257 261 262 258 249 242 244 240 236 235 233 231 231 231 232 231 231 232 233 232 235 236 234 225 222 224 222 223 221 225 230 229 343
225 233 232 231 230 229 232 236 241 242 259 257 267 267 258 250 249 243 243 238 234 233 228 227 229 229 229 229 229 231 232 235 233 230 228 225 222 220 218 217 218 221 213 207
234 229 225 231 231 228 230 234 236 241 248 259 267 286 266 257 251 244 243 242 237 235 233 229 230 231 229 228 230 228 226 231 230 226 226 223 211 209 213 216 212 214 207 202
225 233 220 225 232 227 230 234 239 245 246 255 254 268 268 267 253 243 242 245 244 237 234 231 231 233 233 231 230 229 226 225 223 223 222 217 211 215 216 208 209 209 206 201
239 242 232 235 232 230 227 222 220 226 233 256 246 231 268 258 257 250 239 240 238 234 233 230 228 227 229 229 228 228 227 228 228 228 224 216 211 214 209 205 206 206 207 203
230 227 230 222 220 219 211 197 127 175 188 237 214 222 239 279 254 247 242 234 230 228 232 230 230 230 228 229 228 227 227 224 225 225 222 214 212 213 206 207 206 205 207 205
218 213 220 216 214 205 200 188 175 180 198 197 181 237 251 263 257 271 267 260 234 231 232 230 230 231 231 230 231 229 228 226 228 227 221 213 212 211 207 208 206 205 208 206
207 226 238 216 211 208 198 200 210 165 150 136 222 253 260 258 262 257 257 254 239 239 237 231 231 230 231 233 231 225 225 223 225 226 219 214 214 210 209 209 206 205 204 207
228 222 222 221 208 207 218 206 188 203 150 233 255 256 244 212 193 245 253 240 238 232 237 236 228 225 225 229 224 221 216 217 220 220 216 212 213 210 212 212 207 203 203 206
229 202 193 209 198 201 199 194 200 204 206 187 213 251 260 249 242 260 276 213 221 213 197 199 206 211 215 219 217 214 209 211 212 212 213 212 213 213 214 211 209 206 204 205
227 242 200 205 203 208 203 202 198 195 205 220 200 216 66 109 241 239 212 192 188 203 214 210 210 211 213 212 211 207 207 209 210 210 211 210 212 214 215 215 214 210 204 204
222 219 199 208 212 203 208 205 205 207 212 207 185 206 228 291 327 221 216 203 203 194 196 196 200 204 200 200 203 207 208 210 211 210 210 211 212 214 215 216 215 212 206 204
202 220 235 201 213 209 212 208 212 207 207 217 218 216 156 194 200 234 211 200 178 188 190 189 192 198 200 199 200 204 208 207 209 211 213 214 215 215 216 218 217 212 207 203
350 33 223 235 179 210 219 215 212 210 219 218 225 208 208 212 128 139 158 189 182 181 191 196 196 196 201 205 207 205 204 208 210 211 214 216 216 216 217 218 216 210 206 203
297 333 18 198 232 243 209 217 219 220 226 227 233 229 211 196 220 260 193 176 181 176 176 177 180 184 191 198 203 206 205 205 208 211 213 215 217 218 218 216 213 207 205 204
294 316 355 48 350 248 233 222 216 223 227 229 231 227 217 235 243 223 195 172 165 159 157 157 160 164 165 170 187 197 203 206 207 209 212 215 217 218 217 215 211 206 204 204
278 223 80 44 1 221 330 232 225 231 227 230 237 233 227 223 236 221 186 175 170 167 165 164 161 157 165 170 170 174 189 198 203 205 207 211 214 215 215 213 210 204 203 203
244 248 130 134 145 293 322 217 232 239 241 233 235 237 232 213 214 199 185 181 171 172 172 172 172 166 168 173 179 178 176 190 198 201 206 209 211 212 213 210 206 205 205 203
217 230 227 165 155 189 152 197 67 336 261 261 240 234 229 221 225 222 218 221 227 223 227 234 228 217 187 189 203 197 195 189 196 202 204 206 208 208 208 206 204 207 206 204
202 222 223 193 190 218 232 269 286 308 309 135 248 225 233 234 232 233 243 247 251 253 256 257 257 254 238 219 214 221 217 219 221 215 210 207 203 204 203 204 208 211 210 209
214 205 207 202 209 254 243 251 267 290 282 312 25 208 205 208 211 221 232 243 251 260 263 266 265 259 258 257 246 232 226 237 232 229 226 217 209 207 207 208 211 213 213 212
218 219 219 215 234 245 273 229 242 256 249 271 281 247 192 168 168 189 190 216 231 240 250 257 262 258 255 252 249 239 229 227 237 238 233 234 228 219 212 212 216 217 218 218
239 235 238 243 245 247 243 247 248 246 235 230 238 259 264 267 177 176 174 167 167 182 202 216 229 250 246 233 227 222 218 221 228 235 238 234 236 233 225 218 218 219 222 225
254 238 240 240 260 262 256 260 261 259 241 239 240 244 246 256 265 266 229 238 207 213 199 174 183 204 219 235 237 230 229 226 216 221 229 234 234 236 236 230 226 225 225 228
262 265 253 264 289 288 282 279 268 263 254 243 242 238 244 250 254 254 260 263 252 222 218 208 193 186 211 222 230 239 235 229 223 220 226 230 234 233 235 237 234 230 225 224